Time,TemperatureF,DewpointF,PressureIn,WindDirection,WindDirectionDegrees,WindSpeedMPH,WindSpeedGustMPH,Humidity,HourlyPrecipIn,Conditions,Clouds,dailyrainin,SoftwareType,DateUTC
2013-05-31 00:02:00,74.0,73.0,30.08,East,84,5.0,8.0,96,99.99,,,-99.99,,2013-05-31 04:02:00,
2013-05-31 00:12:00,74.0,73.0,30.08,East,84,5.0,8.0,96,99.99,,,-99.99,,2013-05-31 04:12:00,
2013-05-31 00:22:00,74.0,73.0,30.08,East,86,5.0,8.0,97,99.99,,,-99.99,,2013-05-31 04:22:00,
2013-05-31 00:33:00,74.0,73.0,30.08,ENE,62,5.0,10.0,96,99.99,,,-99.99,,2013-05-31 04:33:00,
2013-05-31 00:42:00,74.0,73.0,30.08,ENE,62,5.0,10.0,96,99.99,,,-99.99,,2013-05-31 04:42:00,
2013-05-31 00:53:00,74.0,73.0,30.09,ENE,68,5.0,9.0,97,99.99,,,-99.99,,2013-05-31 04:53:00,
2013-05-31 01:02:00,74.0,73.0,30.09,ENE,69,5.0,9.0,97,99.99,,,-99.99,,2013-05-31 05:02:00,
2013-05-31 01:12:00,74.0,73.0,30.09,ENE,72,4.0,7.0,96,99.99,,,-99.99,,2013-05-31 05:12:00,
2013-05-31 01:22:00,74.0,73.0,30.09,ENE,72,4.0,7.0,96,99.99,,,-99.99,,2013-05-31 05:22:00,
2013-05-31 01:32:00,74.0,72.0,30.09,East,79,4.0,7.0,95,99.99,,,-99.99,,2013-05-31 05:32:00,
2013-05-31 01:42:00,74.0,72.0,30.09,East,79,4.0,7.0,95,99.99,,,-99.99,,2013-05-31 05:42:00,
2013-05-31 01:52:00,74.0,73.0,30.08,ESE,120,5.0,8.0,96,99.99,,,-99.99,,2013-05-31 05:52:00,
2013-05-31 02:02:00,74.0,73.0,30.07,ENE,68,5.0,8.0,97,99.99,,,-99.99,,2013-05-31 06:02:00,
2013-05-31 02:12:00,74.0,73.0,30.07,ENE,68,5.0,8.0,97,99.99,,,-99.99,,2013-05-31 06:12:00,
2013-05-31 02:22:00,73.0,72.0,30.07,ENE,58,5.0,8.0,98,99.99,,,-99.99,,2013-05-31 06:22:00,
2013-05-31 02:32:00,73.0,72.0,30.06,ENE,62,4.0,7.0,98,99.99,,,-99.99,,2013-05-31 06:32:00,
2013-05-31 02:41:00,73.0,73.0,30.05,ENE,73,5.0,9.0,99,99.99,,,-99.99,,2013-05-31 06:41:00,
2013-05-31 02:52:00,73.0,73.0,30.05,ENE,73,5.0,9.0,99,99.99,,,-99.99,,2013-05-31 06:52:00,
2013-05-31 03:02:00,73.0,73.0,30.05,East,82,4.0,7.0,100,99.99,,,-99.99,,2013-05-31 07:02:00,
2013-05-31 03:11:00,72.0,72.0,30.04,East,79,4.0,8.0,100,99.99,,,-99.99,,2013-05-31 07:11:00,
2013-05-31 03:21:00,72.0,72.0,30.04,East,79,4.0,8.0,100,99.99,,,-99.99,,2013-05-31 07:21:00,
2013-05-31 03:32:00,72.0,72.0,30.04,East,80,4.0,7.0,100,99.99,,,-99.99,,2013-05-31 07:32:00,
2013-05-31 03:41:00,72.0,72.0,30.04,East,80,4.0,7.0,100,99.99,,,-99.99,,2013-05-31 07:41:00,
2013-05-31 03:53:00,72.0,72.0,30.04,SE,129,4.0,7.0,100,99.99,,,-99.99,,2013-05-31 07:53:00,
2013-05-31 04:02:00,72.0,72.0,30.03,East,93,5.0,9.0,100,99.99,,,-99.99,,2013-05-31 08:02:00,
2013-05-31 04:11:00,72.0,72.0,30.03,East,93,5.0,9.0,100,99.99,,,-99.99,,2013-05-31 08:11:00,
2013-05-31 04:22:00,72.0,72.0,30.03,ENE,70,4.0,8.0,100,99.99,,,-99.99,,2013-05-31 08:22:00,
2013-05-31 04:32:00,72.0,72.0,30.03,ENE,66,4.0,8.0,100,99.99,,,-99.99,,2013-05-31 08:32:00,
2013-05-31 04:42:00,72.0,72.0,30.03,ENE,66,4.0,8.0,100,99.99,,,-99.99,,2013-05-31 08:42:00,
2013-05-31 04:52:00,72.0,72.0,30.03,ENE,75,5.0,10.0,100,99.99,,,-99.99,,2013-05-31 08:52:00,
2013-05-31 05:01:00,72.0,72.0,30.03,SE,124,4.0,8.0,100,99.99,,,-99.99,,2013-05-31 09:01:00,
2013-05-31 05:11:00,72.0,72.0,30.03,ESE,122,4.0,6.0,100,99.99,,,-99.99,,2013-05-31 09:11:00,
2013-05-31 05:21:00,72.0,72.0,30.03,ESE,122,4.0,6.0,100,99.99,,,-99.99,,2013-05-31 09:21:00,
2013-05-31 05:32:00,72.0,72.0,30.03,ENE,75,4.0,7.0,100,99.99,,,-99.99,,2013-05-31 09:32:00,
2013-05-31 05:43:00,72.0,72.0,30.03,ENE,75,4.0,7.0,100,99.99,,,-99.99,,2013-05-31 09:43:00,
2013-05-31 05:53:00,72.0,72.0,30.04,SE,125,3.0,6.0,100,99.99,,,-99.99,,2013-05-31 09:53:00,
2013-05-31 06:02:00,72.0,72.0,30.04,ESE,122,3.0,6.0,100,99.99,,,-99.99,,2013-05-31 10:02:00,
2013-05-31 06:12:00,72.0,72.0,30.05,ENE,76,3.0,4.0,100,99.99,,,-99.99,,2013-05-31 10:12:00,
2013-05-31 06:22:00,72.0,72.0,30.05,ENE,76,3.0,4.0,100,99.99,,,-99.99,,2013-05-31 10:22:00,
2013-05-31 06:33:00,72.0,72.0,30.04,ESE,122,4.0,6.0,100,99.99,,,-99.99,,2013-05-31 10:33:00,
2013-05-31 06:42:00,72.0,72.0,30.04,ESE,122,4.0,6.0,100,99.99,,,-99.99,,2013-05-31 10:42:00,
2013-05-31 06:52:00,73.0,73.0,30.05,East,89,4.0,8.0,100,99.99,,,-99.99,,2013-05-31 10:52:00,
2013-05-31 07:02:00,73.0,73.0,30.04,East,101,5.0,8.0,99,99.99,,,-99.99,,2013-05-31 11:02:00,
2013-05-31 07:12:00,73.0,73.0,30.04,East,101,5.0,8.0,99,99.99,,,-99.99,,2013-05-31 11:12:00,
2013-05-31 07:22:00,73.0,72.0,30.05,SE,127,4.0,7.0,98,99.99,,,-99.99,,2013-05-31 11:22:00,
2013-05-31 07:32:00,73.0,72.0,30.05,ESE,118,5.0,9.0,98,99.99,,,-99.99,,2013-05-31 11:32:00,
2013-05-31 07:42:00,73.0,72.0,30.05,ESE,118,5.0,9.0,98,99.99,,,-99.99,,2013-05-31 11:42:00,
2013-05-31 07:52:00,74.0,73.0,30.06,ENE,77,3.0,7.0,97,99.99,,,-99.99,,2013-05-31 11:52:00,
2013-05-31 08:01:00,75.0,73.0,30.06,SE,139,6.0,11.0,93,99.99,,,-99.99,,2013-05-31 12:01:00,
2013-05-31 08:11:00,75.0,73.0,30.06,SE,139,6.0,11.0,93,99.99,,,-99.99,,2013-05-31 12:11:00,
2013-05-31 08:22:00,76.0,72.0,30.06,ESE,115,7.0,12.0,87,99.99,,,-99.99,,2013-05-31 12:22:00,
2013-05-31 08:31:00,76.0,71.0,30.07,SE,143,7.0,13.0,84,99.99,,,-99.99,,2013-05-31 12:31:00,
2013-05-31 08:42:00,76.0,71.0,30.07,SE,143,7.0,13.0,84,99.99,,,-99.99,,2013-05-31 12:42:00,
2013-05-31 08:52:00,78.0,71.0,30.07,SSE,150,7.0,13.0,80,99.99,,,-99.99,,2013-05-31 12:52:00,
2013-05-31 09:01:00,79.0,70.0,30.07,SE,143,8.0,17.0,75,99.99,,,-99.99,,2013-05-31 13:01:00,
2013-05-31 09:11:00,79.0,70.0,30.07,SE,143,8.0,17.0,75,99.99,,,-99.99,,2013-05-31 13:11:00,
2013-05-31 09:21:00,80.0,71.0,30.07,SSE,152,10.0,17.0,73,99.99,,,-99.99,,2013-05-31 13:21:00,
2013-05-31 09:32:00,81.0,70.0,30.06,SE,143,8.0,18.0,69,99.99,,,-99.99,,2013-05-31 13:32:00,
2013-05-31 09:42:00,81.0,70.0,30.06,SE,143,8.0,18.0,69,99.99,,,-99.99,,2013-05-31 13:42:00,
2013-05-31 09:52:00,81.0,70.0,30.06,SSE,152,12.0,19.0,70,99.99,,,-99.99,,2013-05-31 13:52:00,
2013-05-31 10:02:00,81.0,70.0,30.07,SSE,165,10.0,20.0,69,99.99,,,-99.99,,2013-05-31 14:02:00,
2013-05-31 10:11:00,81.0,70.0,30.07,SSE,165,10.0,20.0,69,99.99,,,-99.99,,2013-05-31 14:11:00,
2013-05-31 10:21:00,81.0,70.0,30.07,SE,146,8.0,19.0,70,99.99,,,-99.99,,2013-05-31 14:21:00,
2013-05-31 10:32:00,82.0,71.0,30.07,SE,145,6.0,11.0,70,99.99,,,-99.99,,2013-05-31 14:32:00,
2013-05-31 10:42:00,82.0,71.0,30.07,SE,145,6.0,11.0,70,99.99,,,-99.99,,2013-05-31 14:42:00,
2013-05-31 10:52:00,83.0,71.0,30.08,SE,142,10.0,16.0,68,99.99,,,-99.99,,2013-05-31 14:52:00,
2013-05-31 11:01:00,83.0,70.0,30.08,SE,146,8.0,16.0,66,99.99,,,-99.99,,2013-05-31 15:01:00,
2013-05-31 11:11:00,84.0,70.0,30.08,SSE,149,9.0,18.0,64,99.99,,,-99.99,,2013-05-31 15:11:00,
2013-05-31 11:21:00,84.0,70.0,30.08,SSE,149,9.0,18.0,64,99.99,,,-99.99,,2013-05-31 15:21:00,
2013-05-31 11:33:00,84.0,71.0,30.08,ESE,122,7.0,11.0,65,99.99,,,-99.99,,2013-05-31 15:33:00,
2013-05-31 11:43:00,84.0,71.0,30.08,ESE,122,7.0,11.0,65,99.99,,,-99.99,,2013-05-31 15:43:00,
2013-05-31 11:53:00,85.0,72.0,30.08,ENE,59,6.0,15.0,66,99.99,,,-99.99,,2013-05-31 15:53:00,
2013-05-31 12:03:00,84.0,71.0,30.08,ESE,122,7.0,12.0,65,99.99,,,-99.99,,2013-05-31 16:03:00,
2013-05-31 12:12:00,84.0,71.0,30.08,SE,127,6.0,11.0,65,99.99,,,-99.99,,2013-05-31 16:12:00,
2013-05-31 12:22:00,84.0,71.0,30.08,SE,127,6.0,11.0,65,99.99,,,-99.99,,2013-05-31 16:22:00,
2013-05-31 12:33:00,86.0,71.0,30.08,SE,138,6.0,10.0,62,99.99,,,-99.99,,2013-05-31 16:33:00,
2013-05-31 12:42:00,86.0,71.0,30.08,SE,138,6.0,10.0,62,99.99,,,-99.99,,2013-05-31 16:42:00,
2013-05-31 12:52:00,87.0,71.0,30.07,SSE,150,7.0,14.0,60,99.99,,,-99.99,,2013-05-31 16:52:00,
2013-05-31 13:02:00,86.0,72.0,30.07,SE,138,7.0,15.0,63,99.99,,,-99.99,,2013-05-31 17:02:00,
2013-05-31 13:12:00,86.0,72.0,30.07,SE,138,7.0,15.0,63,99.99,,,-99.99,,2013-05-31 17:12:00,
2013-05-31 13:22:00,88.0,71.0,30.07,SE,142,7.0,15.0,58,99.99,,,-99.99,,2013-05-31 17:22:00,
2013-05-31 13:32:00,88.0,71.0,30.07,SSE,152,6.0,12.0,58,99.99,,,-99.99,,2013-05-31 17:32:00,
2013-05-31 13:42:00,88.0,71.0,30.07,SSE,152,6.0,12.0,58,99.99,,,-99.99,,2013-05-31 17:42:00,
2013-05-31 13:52:00,88.0,71.0,30.07,SSE,152,6.0,12.0,58,99.99,,,-99.99,,2013-05-31 17:52:00,
2013-05-31 14:02:00,87.0,71.0,30.05,ENE,59,10.0,18.0,59,99.99,,,-99.99,,2013-05-31 18:02:00,
2013-05-31 14:12:00,87.0,71.0,30.05,ENE,59,10.0,18.0,59,99.99,,,-99.99,,2013-05-31 18:12:00,
2013-05-31 14:22:00,87.0,71.0,30.05,ENE,59,10.0,18.0,59,99.99,,,-99.99,,2013-05-31 18:22:00,
2013-05-31 14:32:00,87.0,72.0,30.05,SSE,152,5.0,15.0,61,99.99,,,-99.99,,2013-05-31 18:32:00,
2013-05-31 14:42:00,87.0,72.0,30.05,SSE,152,5.0,15.0,61,99.99,,,-99.99,,2013-05-31 18:42:00,
2013-05-31 14:52:00,88.0,72.0,30.05,ENE,76,7.0,15.0,59,99.99,,,-99.99,,2013-05-31 18:52:00,
2013-05-31 15:02:00,83.0,74.0,30.05,SE,143,7.0,12.0,74,99.99,,,-99.99,,2013-05-31 19:02:00,
2013-05-31 15:11:00,83.0,74.0,30.05,SE,143,7.0,12.0,74,99.99,,,-99.99,,2013-05-31 19:11:00,
2013-05-31 15:22:00,76.0,76.0,30.05,ENE,68,10.0,15.0,100,99.99,,,-99.99,,2013-05-31 19:22:00,
2013-05-31 15:32:00,77.0,77.0,30.04,ENE,62,10.0,14.0,100,99.99,,,-99.99,,2013-05-31 19:32:00,
2013-05-31 15:42:00,79.0,79.0,30.04,ENE,72,9.0,15.0,100,99.99,,,-99.99,,2013-05-31 19:42:00,
2013-05-31 15:52:00,79.0,79.0,30.04,ENE,72,9.0,15.0,100,99.99,,,-99.99,,2013-05-31 19:52:00,
2013-05-31 16:02:00,80.0,79.0,30.03,ENE,69,9.0,15.0,96,99.99,,,-99.99,,2013-05-31 20:02:00,
2013-05-31 16:11:00,80.0,79.0,30.03,ENE,69,9.0,15.0,96,99.99,,,-99.99,,2013-05-31 20:11:00,
2013-05-31 16:22:00,81.0,79.0,30.03,SSE,148,7.0,15.0,95,99.99,,,-99.99,,2013-05-31 20:22:00,
2013-05-31 16:32:00,79.0,75.0,30.03,SE,146,11.0,16.0,88,99.99,,,-99.99,,2013-05-31 20:32:00,
2013-05-31 16:42:00,79.0,75.0,30.03,SE,146,11.0,16.0,88,99.99,,,-99.99,,2013-05-31 20:42:00,
2013-05-31 16:52:00,79.0,78.0,30.03,SSE,150,9.0,13.0,97,99.99,,,-99.99,,2013-05-31 20:52:00,
2013-05-31 17:01:00,79.0,78.0,30.03,SE,143,5.0,9.0,98,99.99,,,-99.99,,2013-05-31 21:01:00,
2013-05-31 17:11:00,79.0,78.0,30.03,SE,143,5.0,9.0,98,99.99,,,-99.99,,2013-05-31 21:11:00,
2013-05-31 17:22:00,79.0,78.0,30.03,SE,143,5.0,9.0,98,99.99,,,-99.99,,2013-05-31 21:22:00,
2013-05-31 17:32:00,79.0,78.0,30.03,SE,143,5.0,9.0,98,99.99,,,-99.99,,2013-05-31 21:32:00,
2013-05-31 17:42:00,82.0,75.0,30.02,SSE,148,6.0,10.0,80,99.99,,,-99.99,,2013-05-31 21:42:00,
2013-05-31 17:54:00,82.0,75.0,30.02,SSE,148,6.0,10.0,80,99.99,,,-99.99,,2013-05-31 21:54:00,
2013-05-31 18:03:00,83.0,74.0,30.01,SE,146,4.0,9.0,74,99.99,,,-99.99,,2013-05-31 22:03:00,
2013-05-31 18:12:00,83.0,74.0,30.02,SE,141,9.0,16.0,75,99.99,,,-99.99,,2013-05-31 22:12:00,
2013-05-31 18:22:00,83.0,74.0,30.02,SE,141,9.0,16.0,75,99.99,,,-99.99,,2013-05-31 22:22:00,
2013-05-31 18:33:00,82.0,73.0,30.02,SE,142,8.0,10.0,75,99.99,,,-99.99,,2013-05-31 22:33:00,
2013-05-31 18:42:00,82.0,75.0,30.02,SE,142,6.0,8.0,79,99.99,,,-99.99,,2013-05-31 22:42:00,
2013-05-31 18:53:00,82.0,75.0,30.02,SE,142,6.0,8.0,79,99.99,,,-99.99,,2013-05-31 22:53:00,
2013-05-31 19:02:00,82.0,77.0,30.02,SE,134,3.0,6.0,84,99.99,,,-99.99,,2013-05-31 23:02:00,
2013-05-31 19:12:00,82.0,71.0,30.02,ESE,118,6.0,10.0,70,99.99,,,-99.99,,2013-05-31 23:12:00,
2013-05-31 19:21:00,82.0,71.0,30.02,ESE,118,6.0,10.0,70,99.99,,,-99.99,,2013-05-31 23:21:00,
2013-05-31 19:32:00,82.0,71.0,30.02,SSE,159,5.0,9.0,70,99.99,,,-99.99,,2013-05-31 23:32:00,
2013-05-31 19:42:00,83.0,72.0,30.03,ESE,121,4.0,9.0,69,99.99,,,-99.99,,2013-05-31 23:42:00,
2013-05-31 19:52:00,83.0,72.0,30.03,ESE,121,4.0,9.0,69,99.99,,,-99.99,,2013-05-31 23:52:00,
2013-05-31 20:01:00,82.0,71.0,30.02,SE,124,6.0,11.0,70,99.99,,,-99.99,,2013-06-01 00:01:00,
2013-05-31 20:12:00,81.0,71.0,30.03,ENE,73,5.0,10.0,72,99.99,,,-99.99,,2013-06-01 00:12:00,
2013-05-31 20:22:00,81.0,71.0,30.03,ENE,73,5.0,10.0,72,99.99,,,-99.99,,2013-06-01 00:22:00,
2013-05-31 20:32:00,80.0,71.0,30.04,ENE,69,6.0,12.0,74,99.99,,,-99.99,,2013-06-01 00:32:00,
2013-05-31 20:42:00,79.0,70.0,30.04,ESE,113,6.0,11.0,74,99.99,,,-99.99,,2013-06-01 00:42:00,
2013-05-31 20:52:00,79.0,70.0,30.04,ESE,113,6.0,11.0,74,99.99,,,-99.99,,2013-06-01 00:52:00,
2013-05-31 21:01:00,79.0,70.0,30.05,ESE,105,4.0,8.0,75,99.99,,,-99.99,,2013-06-01 01:01:00,
2013-05-31 21:11:00,78.0,71.0,30.06,ENE,77,5.0,10.0,78,99.99,,,-99.99,,2013-06-01 01:11:00,
2013-05-31 21:22:00,78.0,71.0,30.06,ENE,77,5.0,10.0,78,99.99,,,-99.99,,2013-06-01 01:22:00,
2013-05-31 21:32:00,78.0,71.0,30.06,SE,134,5.0,9.0,80,99.99,,,-99.99,,2013-06-01 01:32:00,
2013-05-31 21:42:00,77.0,71.0,30.06,ENE,76,5.0,9.0,82,99.99,,,-99.99,,2013-06-01 01:42:00,
2013-05-31 21:52:00,77.0,71.0,30.06,ENE,76,5.0,9.0,82,99.99,,,-99.99,,2013-06-01 01:52:00,
2013-05-31 22:01:00,77.0,71.0,30.06,ENE,76,5.0,9.0,82,99.99,,,-99.99,,2013-06-01 02:01:00,
2013-05-31 22:11:00,77.0,72.0,30.06,ENE,69,5.0,8.0,86,99.99,,,-99.99,,2013-06-01 02:11:00,
2013-05-31 22:21:00,77.0,72.0,30.06,ENE,69,5.0,8.0,86,99.99,,,-99.99,,2013-06-01 02:21:00,
2013-05-31 22:32:00,77.0,72.0,30.06,ENE,69,5.0,8.0,86,99.99,,,-99.99,,2013-06-01 02:32:00,
2013-05-31 22:42:00,77.0,72.0,30.06,ENE,69,5.0,8.0,86,99.99,,,-99.99,,2013-06-01 02:42:00,
2013-05-31 22:52:00,77.0,72.0,30.06,ENE,69,5.0,8.0,86,99.99,,,-99.99,,2013-06-01 02:52:00,
2013-05-31 23:11:00,76.0,75.0,30.06,SE,135,4.0,7.0,96,99.99,,,-99.99,,2013-06-01 03:11:00,
2013-05-31 23:22:00,76.0,75.0,30.06,SE,135,4.0,7.0,96,99.99,,,-99.99,,2013-06-01 03:22:00,
2013-05-31 23:33:00,76.0,75.0,30.06,SE,127,3.0,6.0,97,99.99,,,-99.99,,2013-06-01 03:33:00,
2013-05-31 23:43:00,76.0,75.0,30.06,SE,127,3.0,6.0,97,99.99,,,-99.99,,2013-06-01 03:43:00,
2013-05-31 23:53:00,76.0,75.0,30.06,SE,127,3.0,6.0,97,99.99,,,-99.99,,2013-06-01 03:53:00,